Simultaneous Nadir Overpasses (SNOs) Predictions

Prediction of SNOs between AQUA and NPP Satellite Orbit:

Table of predicted SNOs for the next 14.0 days since TLE Epoch: 10/28/2023
Index Date (AQUA) Time (AQUA) Lat,Lon (AQUA) SZA (AQUA ) Date (NPP) Time (NPP) Lat,Lon (NPP) SZA (NPP ) Distance(km) Time Diff (sec)
1 10/28/2023 14:28:39 80.95,-122.52 101.63 10/28/2023 14:28:18 80.95,-122.52 101.64 0.45 21
2 10/28/2023 15:18:02 -80.98, 45.50 78.42 10/28/2023 15:19:01 -80.98, 45.54 78.46 0.82 59
3 10/31/2023 04:13:19 -80.94,-148.87 77.52 10/31/2023 04:13:00 -80.94,-148.86 77.51 0.47 19
4 10/31/2023 05:02:40 80.99, 19.61 102.38 10/31/2023 05:03:42 80.99, 19.48 102.36 2.37 62
5 11/02/2023 17:57:56 80.94,-174.86 103.27 11/02/2023 17:57:41 80.94,-175.00 103.30 2.40 15
6 11/02/2023 18:47:18 -81.00, -6.43 76.83 11/02/2023 18:48:23 -80.99, -6.55 76.86 2.15 65
7 11/05/2023 07:42:33 -80.95, 159.08 75.96 11/05/2023 07:42:22 -80.95, 158.94 75.93 2.45 11
8 11/05/2023 08:31:53 81.02, -32.16 103.90 11/05/2023 08:33:02 81.02, -32.02 103.84 2.48 69
9 11/07/2023 21:27:07 80.97, 133.25 104.76 11/07/2023 21:27:01 80.97, 133.38 104.75 2.51 6
10 11/07/2023 22:16:16 -81.30, -53.44 75.99 11/07/2023 22:17:30 -81.19, -53.26 76.09 12.59 74



Historial Predications of SNOs between AQUA and NPP
